map of STM home
STM - Airport
Location
City:  Santarém, Pará, Brazil
Name:Santarém - Maestro Wilson Fonseca Airport
ICAO:SBSN
IATA:STM

Details
Type:Airport (Aerodrome, Airfield)
Use:Public/Civil, International (customs port of entry)
Latitude:2°25'21"S (-2.422430)
Longitude:54°47'34"W (-54.792788)
Datum:WGS 1984
Elevation:198 ft (60 m)
Variation:18.26°W (WMM2015 magnetic declination)
-0.08° annual change
Runways:1
Longest:7874 × 148 ft (2400 × 45 m), paved

Time
Time Zone:UTC-4
Local Time:

Weather
METAR:SBSN 090900Z 11004KT 3000 FU NSC 26/24 Q1009
TAF:SBSN 090400Z 0906/1006 15005KT 9999 SCT015 FEW025TCU TN24/0908Z TX32/0916Z
BECMG 0909/0911 06005KT FEW017
BECMG 0913/0915 02015KT SCT020
BECMG 0919/0921 09005KT SCT020 FEW025TCU
RMK PEN

Related Locations
Nearby:
Farthest:MAL: 12381 mi / 19926 km
Mangole [Falabisahaya Airport], Mangole Island, MA, ID

Find:

   beyond  
but within

Other Information
Maps:
NOTAMs:
Links:
Sources:

  
flag of Brazil
flag of Pará
  

Sectional Chart

Flight Planning
at skyvector.com

Satellite Image

Google Maps Satellite view

 

Copyright © 2004-2016 Karl L. Swartz. All rights reserved.
The Great Circle Mapper name and logo are trademarks of the Great Circle Mapper.
All other trademarks mentioned herein belong to their respective owners.
Please see credits for attibutions and further copyright information.

  Follow gcmap on Facebook Follow gcmap on Twitter Follow gcmap on Google+ GCmap on LinkedIn

hCard Microformat

Geo Microformat